User: anonymous   Login
Location: Unspecified
(0.0000°N, 0.0000°E)
Time: 23:11:04
(UTC+01:00)
Language:

Ariane 42L R/B - Orbit

View from above orbital plane
View from above orbital plane
View from above satellite
View from above satellite

Ground track
Ground track

The orbit data is extracted from the following two-line orbital elements,

1 26299U 00020B   15085.51598301  .00011693  00000-0  18444-2 0  9994
2 26299 007.4895 279.7812 6064038 299.5209 020.6794 03.95800479185953
Epoch (UTC): 26 March 2015 12:23:00
Eccentricity: 0.6064038
inclination: 7.4895°
perigee height: 266 km
apogee height: 20740 km
right ascension of ascending node: 279.7812°
argument of perigee: 299.5209°
revolutions per day: 3.95800479
mean anomaly at epoch: 20.6794°
orbit number at epoch: 18595

The dashed part of the orbit path shows where the satellite is in the earth's shadow,  

DLR